Fairbanks, AK

5:21 AM AKST on December 03, 2016 (GMT -0900)
Fairbanks International

Weather History for PAFA - February, 2012

Change the Weather History Date:

Tuesday, February 7, 2012

  Actual Average Record
Temperature  
Mean Temperature 3 °F -4 °F  
Max Temperature 14 °F 6 °F 37 °F (1964)
Min Temperature -9 °F -14 °F -51 °F (1979)
Degree Days  
Heating Degree Days 62 69  
Month to date heating degree days 481 492  
Since 1 July heating degree days 9321 9024  
Cooling Degree Days 0 0  
Month to date cooling degree days 0 0  
Year to date cooling degree days 0 0  
Moisture  
Dew Point 0 °F    
Average Humidity 84    
Maximum Humidity 90    
Minimum Humidity 74    
Precipitation  
Precipitation 0.00 in 0.01 in 0.20 in (1959)
Month to date precipitation 0.08 0.11  
Year to date precipitation 0.77 0.69  
Snow  
Snow 0.00 in 0.30 in 4.60 in (1959)
Month to date snowfall 1.8 2.1  
Since 1 July snowfall 37.0 50.3  
Snow Depth 19.00 in    
Sea Level Pressure  
Sea Level Pressure 29.95 in    
Wind  
Wind Speed 2 mph (NE)    
Max Wind Speed 8 mph    
Max Gust Speed -    
Visibility 10 miles    
Events      
T = Trace of Precipitation, MM = Missing Value Source: NWS Daily Summary

Daily Weather History Graph

Daily Weather History Graph

Search for Another Location

Airport or City:

Trip Planner

Search our weather history database for the weather conditions in past years. The results will help you decide how hot, cold, wet, or windy it might be!

Date:

Astronomy

Feb. 07, 2012 Rise Set
Actual Time 9:18 AM AKST 4:54 PM AKST
Civil Twilight 8:22 AM AKST 5:50 PM AKST
Nautical Twilight 7:23 AM AKST 6:49 PM AKST
Astronomical Twilight 6:26 AM AKST 7:46 PM AKST
Moon 5:44 PM AKST (2/7) 8:34 AM AKST (2/7)
Length of Visible Light 9h 27m
Length of Day
7h 35m
Full, 100% of the Moon is Illuminated
Feb 7
Full
Feb 7
Full
Feb 14
Last Quarter
Feb 21
New
Feb 29
First Quarter

Hourly Weather History & Observations

Time (AKST) Temp. Windchill Dew Point Humidity Pressure Visibility Wind Dir Wind Speed Gust Speed Precip Events Conditions
12:53 AM -2.9 °F - -7.1 °F 82% 30.05 in 10.0 mi Calm Calm - N/A   Clear
1:53 AM -4.0 °F - -9.0 °F 79% 30.04 in 10.0 mi Calm Calm - N/A   Clear
2:53 AM -4.0 °F - -7.1 °F 87% 30.04 in 10.0 mi Calm Calm - N/A   Clear
3:53 AM -7.1 °F -19.9 °F -11.0 °F 83% 30.02 in 10.0 mi NNE 5.8 mph - N/A   Clear
4:53 AM -2.9 °F - -5.1 °F 90% 30.00 in 10.0 mi Calm Calm - N/A   Clear
5:53 AM -6.0 °F - -9.0 °F 87% 29.99 in 10.0 mi Calm Calm - N/A   Clear
6:53 AM -8.0 °F - -11.0 °F 86% 29.99 in 10.0 mi Calm Calm - N/A   Clear
7:53 AM -5.1 °F -13.6 °F -9.0 °F 83% 29.97 in 10.0 mi NE 3.5 mph - N/A   Clear
8:53 AM -5.1 °F - -9.0 °F 83% 29.97 in 10.0 mi Calm Calm - N/A   Clear
9:53 AM -2.9 °F - -7.1 °F 82% 29.97 in 10.0 mi Calm Calm - N/A   Clear
10:53 AM 1.0 °F -8.7 °F -2.9 °F 83% 29.96 in 10.0 mi NE 4.6 mph - N/A   Clear
11:53 AM 8.1 °F 1.4 °F 3.9 °F 83% 29.96 in 10.0 mi North 3.5 mph - N/A   Clear
12:53 PM 10.9 °F 4.7 °F 7.0 °F 84% 29.94 in 10.0 mi ENE 3.5 mph - N/A   Clear
1:53 PM 10.0 °F - 6.1 °F 84% 29.94 in 10.0 mi Calm Calm - N/A   Clear
2:53 PM 19.9 °F - 15.1 °F 81% 29.92 in 10.0 mi Calm Calm - N/A   Clear
3:53 PM 14.0 °F 6.5 °F 9.0 °F 80% 29.91 in 10.0 mi NNE 4.6 mph - N/A   Clear
4:53 PM 8.1 °F 1.4 °F 5.0 °F 87% 29.90 in 10.0 mi NE 3.5 mph - N/A   Clear
5:53 PM 10.0 °F -0.9 °F 6.1 °F 84% 29.90 in 10.0 mi NE 6.9 mph - N/A   Clear
6:53 PM 10.9 °F 0.2 °F 7.0 °F 84% 29.89 in 10.0 mi NE 6.9 mph - N/A   Clear
7:53 PM 6.1 °F -5.6 °F 3.0 °F 87% 29.90 in 10.0 mi NE 6.9 mph - N/A   Clear
8:53 PM 16.0 °F 10.4 °F 9.0 °F 74% 29.89 in 10.0 mi NE 3.5 mph - N/A   Clear
9:53 PM 7.0 °F - 3.9 °F 87% 29.90 in 10.0 mi Calm Calm - N/A   Clear
10:53 PM 1.9 °F -7.6 °F -0.9 °F 88% 29.88 in 10.0 mi North 4.6 mph - N/A   Clear
11:53 PM 1.0 °F -12.9 °F -2.0 °F 87% 29.88 in 10.0 mi NE 8.1 mph - N/A   Clear